カタログに戻る

STARLINK-31674

運用中通信VLEO
NORAD 59517·PAYLOAD·🇺🇸 United States

打ち上げ Apr 17, 2024 から Cape Canaveral Space Force Station

Loading…

次のパス (今後24時間)

TLE

最新Source: CelesTrak SupGP

元期: Sep 15, 2026, 02:40 UTC

1 59517C 24073G   26258.11159722  .00043067  00000+0  15592-2 0  2585
2 59517  43.0019 328.1800 0001454 269.9160 184.4693 15.27572022    14

AllMySatでSTARLINK-31674をリアルタイム追跡

Download on the App Store